www.pogodaiklimat.ru

Погода и климат >> Архив погоды >> Россия >> Камчатский край >> Остров Беринга


ПОГОДА на Острове Беринга

  • Прогноз погоды на Острове Беринга
  • Монитор погоды на Острове Беринга
  • Климат города

АРХИВ ПОГОДЫ на Острове Беринга

Время (UTC), дата Ветер
(напр.,м/с)
 
Видим.   Явления Облачность Т
(С)
Тd
(С)
f
(%)
Тe
(С)
Тes
(С)
Комфортность P
(гПа)
Po
(гПа)
Тmin
(С)
Tmax
(С)
R
(мм)
R24
(мм)
S
(см)
09 18.04 ЮВ 3 20 км 10/10 300 м
[St]
+3.0 +2.4 96 -1 -1 1003.5 1001.3 +5.1
12 18.04 З 1 20 км 10/10 600 м
[Sc]
+2.7 +2.1 96 +1 +1 1006.0 1003.8
15 18.04 З 1 20 км 10/10 600 м
[Sc]
+2.7 +2.1 96 +1 +1 1006.0 1003.8
18 18.04 В 3 500 м туман ?/? +2.4 +2.2 99 -2 -2 1009.2 1007.0
21 18.04 В 2 4000 м дымка {туман} 10/10 300 м
[St]
+4.0 +3.6 97 +1 +1 1010.7 1008.5 +2.2 0
00 19.04 ЮВ 6-11
{12}
4000 м дымка {туман} 10/10 300 м
[St]
+4.3 +3.7 96 -1 -1 1012.6 1010.4
03 19.04 ЮВ 7-11
{14}
20 км 9/9 300 м
[St]
+4.7 +3.4 91 -1 -1 1013.8 1011.6
06 19.04 Ю 6
{13}
20 км 10/10 300 м
[St]
+3.1 +2.2 94 -3 -3 1016.7 1014.5
09 19.04 В 5 20 км 9/9 600 м
[Sc]
+2.3 +1.0 91 -3 -3 1018.6 1016.4 +6.3
12 19.04 СВ 4 20 км 10/10 600 м
[Sc]
+2.3 +1.5 94 -3 -3 1018.6 1016.4
15 19.04 В 3 4000 м дымка 10/10 200 м
[St]
+2.5 +1.9 96 -2 -2 1017.2 1015.0
18 19.04 В 7-10
{12}
4000 м дымка 10/10 200 м
[St]
+2.4 +1.7 95 -4 -4 1016.1 1013.9
21 19.04 В 9-14
{14}
20 км 9/9 600 м
[Sc]
+3.3 +2.0 91 -4 -4 1015.2 1013.0 +2.3 0
00 20.04 В 7-11
{14}
20 км 10/10 300 м
[Sc]
+3.7 +2.2 90 -2 -2 1014.6 1012.3
03 20.04 В 10-13
{14}
20 км в посл. час ливневой дождь 9/9 600 м
[Cb cap]
+3.6 +2.3 91 -4 -4 1013.4 1011.2
06 20.04 В 6-10
{14}
20 км {ливн. осадки} 10/10 600 м
[Sc]
+2.7 +1.5 92 -3 -3 1012.0 1009.8
09 20.04 В 7-12
{16}
10 км слабый ливневой дождь 10/10 300 м
[Cb cap]
+2.2 +1.0 92 -4 -4 1011.7 1009.5 +5.2 1
12 20.04 В 6-10
{13}
10 км слабый ливневой дождь 10/10 300 м
[Cb cap]
+1.8 +0.9 94 -5 -5 1010.9 1008.7
15 20.04 В 8-13
{15}
10 км слабый ливневой дождь 10/10 300 м
[Cb cap]
+2.0 +1.0 93 -5 -5 1009.7 1007.4
18 20.04 В 9-14
{17}
10 км слабый ливневой дождь 10/10 300 м
[Cb cap]
+2.1 +0.9 92 -5 -5 1009.1 1006.8
21 20.04 В 9-15
{18}
10 км слабый ливневой дождь 10/10 200 м
[Cb cap]
+2.6 +1.3 91 -5 -5 1009.0 1006.8 +1.7 4 0
00 21.04 В 9-15
{17}
20 км {ливн. осадки} 10/10 600 м
[Cb cap]
+2.6 +1.3 91 -5 -5 1009.5 1007.3
03 21.04 СВ 12-18
{19}
20 км {ливн. осадки} 10/10 600 м
[Cb cap]
+2.9 +0.9 87 -5 -5 1008.6 1006.4
06 21.04 СВ 9-15
{18}
20 км {ливн. осадки} 10/10 600 м
[Sc]
+2.5 +0.7 88 -5 -5 1008.9 1006.7
09 21.04 СВ 9-14
{17}
20 км 10/10 600 м
[Sc]
+1.4 -1.8 79 -6 -6 1009.8 1007.6 +3.0 0.6
12 21.04 СВ 9-13
{16}
20 км 10/10 600 м
[Sc]
+1.5 -2.6 74 -6 -6 1009.2 1007.0
15 21.04 СВ 7-13
{15}
20 км 10/10 600 м
[Sc]
+0.9 -1.1 86 -6 -6 1009.0 1006.8
18 21.04 СВ 9-16
{16}
20 км 10/10 600 м
[Sc]
+1.1 -2.8 75 -6 -6 1008.5 1006.3
21 21.04 СВ 12-16
{17}
20 км 10/10 600 м
[Sc]
+1.9 -1.1 80 -6 -6 1008.2 1005.9 +0.1 0
00 22.04 СВ 11-16
{18}
20 км 10/10 600 м
[Sc]
+2.3 -1.1 78 -5 -5 1008.8 1006.5
03 22.04 СВ 12-17
{18}
20 км 9/9 600 м
[Sc]
+2.6 -0.2 82 -5 -5 1008.8 1006.6
06 22.04 СВ 12-16
{19}
20 км 9/9 600 м
[Sc]
+2.0 -1.2 79 -6 -6 1009.5 1007.3
09 22.04 СВ 9-12
{18}
20 км 9/9 600 м
[Sc]
+1.1 -1.1 85 -6 -6 1010.3 1008.1 +3.1
12 22.04 СВ 9-13
{17}
20 км 8/8 600 м
[Sc]
+1.5 -1.4 81 -6 -6 1010.6 1008.4
15 22.04 С 11-14
{16}
20 км 10/10 600 м
[Sc]
+1.5 -2.2 76 -6 -6 1009.9 1007.7
18 22.04 С 12-16
{17}
20 км {ливн. осадки} 10/10 600 м
[Sc]
+1.3 -2.4 76 -7 -7 1009.4 1007.2
21 22.04 С 12-16
{17}
20 км 8/8 600 м
[Sc]
+1.9 -1.4 79 -6 -6 1008.9 1006.7 +0.5 0.1 0
00 23.04 СВ 12-16
{19}
20 км {ливн. осадки} 8/8 600 м
[Cb cap]
+2.2 -1.5 76 -6 -6 1008.4 1006.1
03 23.04 СВ 11-16
{17}
50 км 9/9 600 м
[Sc]
+2.8 -0.4 79 -5 -5 1008.2 1006.0
06 23.04 С 13-16
{18}
20 км 9/9 600 м
[Sc]
+1.8 -0.9 82 -7 -7 1008.3 1006.1
09 23.04 С 12-16
{17}
10 км слабый ливневой дождь со снегом 10/10 200 м
[Cb cap]
+1.2 +0.3 94 -7 -7 1008.3 1006.1 +2.9 0.3
12 23.04 СВ 10-15
{18}
10 км слабый ливневой дождь со снегом 10/10 200 м
[Cb cap]
+1.8 +0.9 94 -6 -6 1008.5 1006.2
15 23.04 СВ 9-13
{15}
10 км слабый ливневой дождь со снегом 10/10 200 м
[Cb cap]
+1.9 +1.2 95 -6 -6 1008.8 1006.6
18 23.04 СВ 10-14
{15}
4000 м дымка {ливн. осадки} 10/10 200 м
[St]
+2.1 +1.1 93 -6 -6 1009.7 1007.5
21 23.04 СВ 10-14
{15}
4000 м дымка 10/10 200 м
[St]
+2.4 +1.4 93 -5 -5 1010.6 1008.4 +1.1 2 0
00 24.04 СВ 11-15
{16}
20 км 9/9 600 м
[Sc]
+3.2 +1.2 87 -4 -4 1010.3 1008.1
03 24.04 СВ 12-15
{17}
20 км 8/8 600 м
[Cu med, cong]
+3.2 +0.4 82 -4 -4 1010.1 1007.9
06 24.04 С 12 20 км 8/6 600 м
[Cu med, cong Cs]
+3.0 -0.3 79 -5 -5 1010.0 1007.8
09 24.04 С 8-10
{15}
20 км 8/6 600 м
[Cu med, cong Cs]
+1.6 -0.2 88 -5 -5 1009.9 1007.7 +3.4
12 24.04 С 10-12
{13}
20 км 4/4 600 м
[Sc]
+1.2 -0.5 88 -7 -7 1008.8 1006.6
15 24.04 С 9-11
{13}
20 км 5/5 600 м
[Sc]
+1.0 -0.9 87 -7 -7 1007.3 1005.0
18 24.04 С 6
{12}
20 км 5/5 600 м
[Sc]
+1.0 -1.2 85 -5 -5 1006.9 1004.7
21 24.04 С 8-10
{11}
20 км 8/8 600 м
[Sc]
+2.0 -1.6 77 -5 -5 1007.2 1005.0 +0.9 0
00 25.04 С 8-11
{11}
20 км 5/5 600 м
[Cu med, cong]
+2.8 -2.3 69 -4 -2 1007.2 1005.0
03 25.04 С 8-11
{13}
20 км 5/5 600 м
[Cu med, cong]
+3.0 -2.6 67 -3 -2 1007.2 1005.0

 

Местоположение метеостанции Остров Беринга (Камчатский край, Россия): широта 55.20 долгота 165.90 высота над уровнем моря 18 м.

В архиве по умолчанию представлена погода на Острове Беринга за последнюю неделю. Архивные данные за месяц целиком и за предыдущие месяцы, начиная с января 2011 года, Вы можете получить, выбрав интересующий диапазон дат из раскрывающегося списка и нажав кнопку "Ввод!".

Внимание! Время в таблицах - всемирное. Для получения местного времени необходимо прибавить поправку, которая на Острове Беринга равна 12 ч.

Смотрите также архив погоды в соседних городах и на ближайших метеорологических станциях:

Погода на Мысе Африка (Камчатский край, Россия) (196 км)
Погода в Усть-Камчатске (Камчатский край, Россия) (230 км)
Погода на Мысе Озерном (Камчатский край, Россия) (319 км)
Погода в Ключах (Камчатский край, Россия) (343 км)
Погода в Козыревске (Камчатский край, Россия) (394 км)
Погода в Семячике (Камчатский край, Россия) (404 км)
Погода в Долиновке (Камчатский край, Россия) (438 км)
Погода в Эссо (Камчатский край, Россия) (460 км)
Погода в Мильково (Камчатский край, Россия) (476 км)
Погода в Оссоре (Камчатский край, Россия) (481 км)

Пояснения к столбцам:

Ветер - указаны скорость ветра в м/с - средняя за 10 мин, порывы в срок и между сроками (в фигурных скобках) и направление, откуда дует ветер: С - северный, СВ - северо-восточный, В - восточный, ЮВ - юго-восточный, Ю - южный, ЮЗ - юго-западный, З - западный, СЗ - северо-западный.
Видимость - горизонтальная дальность видимости в метрах или километрах. При видимости от 1 до 10 км при отсутствии осадков обычно наблюдается дымка, при ухудшении видимости до 1 км и менее - туман. В сухую погоду видимость может ухудшаться дымом, пылью или мглою.
Явления - указаны атмосферные явления, наблюдавшиеся в срок или в последний час перед сроком; фигурными скобками обозначены явления, наблюдавшиеся между сроками (за 1-3 часа до срока); квадратными скобками обозначены град или гололедные отложения с указанием их диаметра в мм.
Облачность - указаны через наклонную черту общая и нижняя облачность в баллах и высота нижней границы облаков в метрах; квадратными скобками обозначены формы облаков: Ci - перистые, Cs - перисто-слоистые, Cc - перисто-кучевые, Ac - высококучевые, As - высокослоистые, Sc - слоисто-кучевые, Ns - слоисто-дождевые, Cu - кучевые, Cb - кучево-дождевые. Подробнее классификацию облаков см. в Атласе облаков (PDF).
T - Температура воздуха - температура, измеренная на высоте 2 м над землей.
Td - Температура точки росы - температура, при понижении до которой содержащийся в воздухе водяной пар достигнет насыщения.
f - Относительная влажность воздуха - влажноcть воздуха, измеренная на высоте 2 м над землей.
Te - Эффективная температура - температура, которую ощущает одетый по сезону человек в тени. Характеристика душности погоды. При расчете учитывается влияние влажности воздуха и скорости ветра на теплоощущения человека.
Tes - Эффективная температура на солнце - температура, которую ощущает человек, с поправкой на солнечный нагрев. Характеристика знойности погоды. Зависит от высоты солнца над горизонтом, облачности и скорости ветра. Ночью, в пасмурную погоду, а также при ветре 12 м/с и более поправка равна нулю.
P - Атмосферное давление - приведенное к уровню моря атмосферное давление.
Po - Атмосферное давление - измеренное на уровне метеостанции атмосферное давление.
Tmin - Минимальная температура - минимум температуры воздуха на высоте 2 м над землей.
Tmax - Максимальная температура - максимум температуры воздуха на высоте 2 м над землей.
R - Количество осадков - Количество выпавших осадков за период времени, мм. При наведении курсора мыши на число - период времени, за который выпало указанное количество осадков.
R24 - Количество осадков - Количество выпавших осадков за 24 часа, мм.
S - Снежный покров - Высота снежного покрова, см. При наведении курсора мыши на число - состояние снежного покрова и степень покрытия местности в баллах.